TimeCST,TemperatureF,Dew PointF,Humidity,Sea Level PressureIn,VisibilityMPH,Wind Direction,Wind SpeedMPH,Gust SpeedMPH,PrecipitationIn,Events,Conditions,WindDirDegrees,DateUTC
12:15 AM,23.0,19.4,86,30.16,10.0,Calm,Calm,-,N/A,,Clear,0,2012-12-11 06:15:00
12:35 AM,21.2,19.4,93,30.15,10.0,Calm,Calm,-,N/A,,Clear,0,2012-12-11 06:35:00
12:55 AM,21.2,21.2,100,30.15,10.0,Calm,Calm,-,N/A,,Clear,0,2012-12-11 06:55:00
1:15 AM,21.2,19.4,93,30.15,10.0,Calm,Calm,-,N/A,,Clear,0,2012-12-11 07:15:00
1:35 AM,19.4,17.6,93,30.15,10.0,Calm,Calm,-,N/A,,Clear,0,2012-12-11 07:35:00
1:55 AM,21.2,21.2,100,30.15,10.0,Calm,Calm,-,N/A,,Clear,0,2012-12-11 07:55:00
2:15 AM,19.4,19.4,100,30.15,10.0,Calm,Calm,-,N/A,,Clear,0,2012-12-11 08:15:00
2:35 AM,19.4,19.4,100,30.15,10.0,Calm,Calm,-,N/A,,Clear,0,2012-12-11 08:35:00
2:55 AM,19.4,19.4,100,30.14,10.0,Calm,Calm,-,N/A,,Clear,0,2012-12-11 08:55:00
3:15 AM,19.4,19.4,100,30.14,10.0,Calm,Calm,-,N/A,,Clear,0,2012-12-11 09:15:00
3:35 AM,17.6,17.6,100,30.15,10.0,Calm,Calm,-,N/A,,Clear,0,2012-12-11 09:35:00
3:55 AM,19.4,17.6,93,30.15,10.0,Calm,Calm,-,N/A,,Clear,0,2012-12-11 09:55:00
4:15 AM,19.4,19.4,100,30.15,10.0,Calm,Calm,-,N/A,,Clear,0,2012-12-11 10:15:00
4:35 AM,17.6,15.8,93,30.15,10.0,Calm,Calm,-,N/A,,Clear,0,2012-12-11 10:35:00
4:55 AM,19.4,17.6,93,30.16,10.0,Calm,Calm,-,N/A,,Clear,0,2012-12-11 10:55:00
5:15 AM,17.6,15.8,93,30.16,10.0,Calm,Calm,-,N/A,,Clear,0,2012-12-11 11:15:00
5:35 AM,19.4,17.6,93,30.16,7.0,Calm,Calm,-,N/A,,Scattered Clouds,0,2012-12-11 11:35:00
5:55 AM,21.2,19.4,93,30.17,0.2,Calm,Calm,-,N/A,Fog,Light Freezing Fog,0,2012-12-11 11:55:00
6:15 AM,21.2,19.4,93,30.17,5.0,Calm,Calm,-,N/A,,Scattered Clouds,0,2012-12-11 12:15:00
6:35 AM,19.4,19.4,100,30.18,10.0,Calm,Calm,-,N/A,,Clear,0,2012-12-11 12:35:00
6:55 AM,19.4,19.4,100,30.18,10.0,Calm,Calm,-,N/A,,Clear,0,2012-12-11 12:55:00
7:15 AM,19.4,19.4,100,30.19,10.0,Calm,Calm,-,N/A,,Clear,0,2012-12-11 13:15:00
7:35 AM,19.4,19.4,100,30.20,10.0,Calm,Calm,-,N/A,,Clear,0,2012-12-11 13:35:00
7:55 AM,21.2,19.4,93,30.21,10.0,Calm,Calm,-,N/A,,Clear,0,2012-12-11 13:55:00
8:15 AM,21.2,21.2,100,30.21,10.0,Calm,Calm,-,N/A,,Clear,0,2012-12-11 14:15:00
8:35 AM,24.8,23.0,93,30.21,10.0,Calm,Calm,-,N/A,,Clear,0,2012-12-11 14:35:00
8:55 AM,26.6,24.8,93,30.22,10.0,Calm,Calm,-,N/A,,Clear,0,2012-12-11 14:55:00
9:15 AM,28.4,26.6,93,30.23,10.0,Calm,Calm,-,N/A,,Clear,0,2012-12-11 15:15:00
9:55 AM,32.0,26.6,80,30.23,10.0,Calm,Calm,-,N/A,,Scattered Clouds,0,2012-12-11 15:55:00
10:15 AM,32.0,26.6,80,30.24,10.0,Calm,Calm,-,N/A,,Clear,0,2012-12-11 16:15:00
10:35 AM,35.6,26.6,70,30.24,10.0,Calm,Calm,-,N/A,,Clear,0,2012-12-11 16:35:00
10:55 AM,37.4,24.8,60,30.23,10.0,Calm,Calm,-,N/A,,Clear,0,2012-12-11 16:55:00
11:15 AM,39.2,19.4,45,30.23,10.0,Calm,Calm,-,N/A,,Clear,0,2012-12-11 17:15:00
11:35 AM,41.0,14.0,33,30.22,10.0,Calm,Calm,-,N/A,,Clear,0,2012-12-11 17:35:00
11:55 AM,42.8,12.2,29,30.21,10.0,Calm,Calm,-,N/A,,Clear,0,2012-12-11 17:55:00
12:15 PM,42.8,6.8,23,30.19,10.0,Calm,Calm,-,N/A,,Clear,0,2012-12-11 18:15:00
12:35 PM,44.6,8.6,23,30.19,10.0,Calm,Calm,-,N/A,,Clear,0,2012-12-11 18:35:00
12:55 PM,44.6,5.0,20,30.18,10.0,Calm,Calm,-,N/A,,Scattered Clouds,0,2012-12-11 18:55:00
1:15 PM,46.4,8.6,22,30.18,10.0,Calm,Calm,-,N/A,,Scattered Clouds,0,2012-12-11 19:15:00
1:35 PM,48.2,8.6,20,30.17,10.0,Calm,Calm,-,N/A,,Clear,0,2012-12-11 19:35:00
1:55 PM,48.2,6.8,19,30.17,10.0,Calm,Calm,-,N/A,,Clear,0,2012-12-11 19:55:00
2:15 PM,48.2,8.6,20,30.16,10.0,SW,4.6,-,N/A,,Clear,230,2012-12-11 20:15:00
2:35 PM,50.0,12.2,22,30.16,10.0,SW,4.6,-,N/A,,Clear,220,2012-12-11 20:35:00
2:55 PM,51.8,14.0,22,30.16,10.0,WSW,3.5,-,N/A,,Clear,240,2012-12-11 20:55:00
3:15 PM,48.2,10.4,22,30.16,10.0,SSW,3.5,-,N/A,,Clear,210,2012-12-11 21:15:00
3:35 PM,50.0,10.4,20,30.16,10.0,Calm,Calm,-,N/A,,Clear,0,2012-12-11 21:35:00
3:55 PM,50.0,8.6,19,30.16,10.0,Calm,Calm,-,N/A,,Clear,0,2012-12-11 21:55:00
4:15 PM,48.2,8.6,20,30.16,10.0,Calm,Calm,-,N/A,,Clear,0,2012-12-11 22:15:00
4:35 PM,48.2,8.6,20,30.16,10.0,Calm,Calm,-,N/A,,Clear,0,2012-12-11 22:35:00
4:55 PM,48.2,8.6,20,30.17,10.0,Calm,Calm,-,N/A,,Clear,0,2012-12-11 22:55:00
5:15 PM,42.8,12.2,29,30.17,10.0,Calm,Calm,-,N/A,,Clear,0,2012-12-11 23:15:00
5:35 PM,37.4,15.8,41,30.18,10.0,Calm,Calm,-,N/A,,Clear,0,2012-12-11 23:35:00
5:55 PM,37.4,12.2,36,30.18,10.0,Calm,Calm,-,N/A,,Clear,0,2012-12-11 23:55:00
6:15 PM,37.4,14.0,38,30.18,10.0,Calm,Calm,-,N/A,,Clear,0,2012-12-12 00:15:00
6:35 PM,35.6,21.2,56,30.18,10.0,Calm,Calm,-,N/A,,Clear,0,2012-12-12 00:35:00
6:55 PM,33.8,17.6,52,30.19,10.0,Calm,Calm,-,N/A,,Clear,0,2012-12-12 00:55:00
7:15 PM,32.0,21.2,64,30.20,10.0,Calm,Calm,-,N/A,,Clear,0,2012-12-12 01:15:00
7:35 PM,32.0,21.2,64,30.21,10.0,Calm,Calm,-,N/A,,Clear,0,2012-12-12 01:35:00
7:55 PM,32.0,19.4,60,30.21,10.0,Calm,Calm,-,N/A,,Clear,0,2012-12-12 01:55:00
8:15 PM,30.2,21.2,69,30.23,10.0,Calm,Calm,-,N/A,,Clear,0,2012-12-12 02:15:00
8:35 PM,30.2,21.2,69,30.23,10.0,Calm,Calm,-,N/A,,Clear,0,2012-12-12 02:35:00
8:55 PM,30.2,21.2,69,30.23,10.0,Calm,Calm,-,N/A,,Clear,0,2012-12-12 02:55:00
9:15 PM,28.4,21.2,74,30.24,10.0,Calm,Calm,-,N/A,,Clear,0,2012-12-12 03:15:00
9:35 PM,26.6,21.2,80,30.24,10.0,Calm,Calm,-,N/A,,Clear,0,2012-12-12 03:35:00
9:55 PM,26.6,21.2,80,30.25,10.0,Calm,Calm,-,N/A,,Clear,0,2012-12-12 03:55:00
10:15 PM,24.8,19.4,80,30.26,10.0,Calm,Calm,-,N/A,,Clear,0,2012-12-12 04:15:00
10:35 PM,26.6,19.4,74,30.26,10.0,Calm,Calm,-,N/A,,Clear,0,2012-12-12 04:35:00
10:55 PM,24.8,19.4,80,30.26,10.0,Calm,Calm,-,N/A,,Clear,0,2012-12-12 04:55:00
11:15 PM,23.0,19.4,86,30.27,10.0,Calm,Calm,-,N/A,,Clear,0,2012-12-12 05:15:00
11:35 PM,24.8,19.4,80,30.27,10.0,Calm,Calm,-,N/A,,Clear,0,2012-12-12 05:35:00
11:55 PM,24.8,19.4,80,30.27,10.0,Calm,Calm,-,N/A,,Clear,0,2012-12-12 05:55:00